Retour au catalogue

STARLINK-38267

ActifCommunicationsSSO
NORAD 100301·PAYLOAD·🇺🇸 United States

Lancé Aug 12, 2026 depuis Vandenberg Space Force Base

Loading…

Prochains Passages (prochaines 24 heures)

TLE

FraisSource: Space-Track

Époque: Sep 14, 2026, 22:46 UTC

1 A0301U 26184A   26257.94909856  .00021937  00000-0  60754-3 0  9994
2 A0301  97.2836 123.2055 0002431  86.9692 273.1830 15.36986537  6518

Suivez STARLINK-38267 en temps réel avec AllMySat

Download on the App Store